Tracking 28125 objects as of 4-Oct-2023
HD Live streaming from Space Station
objects crossing your sky now

STARLINK-3308

Track STARLINK-3308 now!
10-day predictions
STARLINK-3308 is classified as:


NORAD ID: 50846
Int'l Code: 2022-001AV
Perigee: 546.2 km
Apogee: 547.6 km
Inclination: 53.2 °
Period: 95.4 minutes
Semi major axis: 6917 km
RCS: Unknown
Launch date: January 6, 2022
Source: United States (US)
Launch site: AIR FORCE EASTERN TEST RANGE (AFETR)
Your satellite tracking list
Your tracking list is empty




NASA's NSSDC Master Catalog

Two Line Element Set (TLE):
1 50846U 22001AV  23277.18789485  .00001113  00000-0  87970-4 0  9990
2 50846  53.2145 203.3858 0001003  96.5916 263.5190 15.08846162 97568
Source of the keplerian elements: AFSPC